TimeEDT,TemperatureF,Dew PointF,Humidity,Sea Level PressureIn,VisibilityMPH,Wind Direction,Wind SpeedMPH,Gust SpeedMPH,PrecipitationIn,Events,Conditions,WindDirDegrees,DateUTC
12:14 AM,39.2,37.4,93,30.01,10.0,WSW,6.9,-,N/A,,Scattered Clouds,250,2012-10-06 04:14:00
12:35 AM,39.2,37.4,93,30.01,10.0,WSW,4.6,-,N/A,,Scattered Clouds,240,2012-10-06 04:35:00
12:55 AM,39.2,37.4,93,30.00,10.0,WSW,6.9,-,N/A,,Clear,250,2012-10-06 04:55:00
1:14 AM,37.4,37.4,100,30.00,10.0,WSW,5.8,-,N/A,,Clear,240,2012-10-06 05:14:00
1:35 AM,37.4,37.4,100,29.99,10.0,WSW,4.6,-,N/A,,Clear,240,2012-10-06 05:35:00
1:55 AM,37.4,37.4,100,29.99,10.0,WSW,4.6,-,N/A,,Clear,240,2012-10-06 05:55:00
2:15 AM,37.4,35.6,93,30.00,10.0,SW,4.6,-,N/A,,Scattered Clouds,230,2012-10-06 06:15:00
2:55 AM,37.4,35.6,93,30.00,10.0,WSW,4.6,-,N/A,,Scattered Clouds,240,2012-10-06 06:55:00
3:15 AM,37.4,35.6,93,29.99,10.0,WSW,4.6,-,N/A,,Mostly Cloudy,240,2012-10-06 07:15:00
3:35 AM,37.4,35.6,93,29.99,10.0,WSW,5.8,-,N/A,,Mostly Cloudy,240,2012-10-06 07:35:00
3:55 AM,37.4,35.6,93,29.99,10.0,SW,4.6,-,N/A,,Scattered Clouds,230,2012-10-06 07:55:00
4:15 AM,35.6,35.6,100,29.99,10.0,WSW,3.5,-,N/A,,Clear,250,2012-10-06 08:15:00
4:35 AM,37.4,35.6,93,29.99,10.0,WSW,5.8,-,N/A,,Clear,240,2012-10-06 08:35:00
4:55 AM,37.4,35.6,93,29.99,10.0,WSW,4.6,-,N/A,,Clear,240,2012-10-06 08:55:00
5:35 AM,35.6,33.8,93,29.99,10.0,SSW,3.5,-,N/A,,Scattered Clouds,210,2012-10-06 09:35:00
5:55 AM,35.6,33.8,93,29.99,10.0,SW,5.8,-,N/A,,Mostly Cloudy,220,2012-10-06 09:55:00
6:15 AM,35.6,33.8,93,29.99,10.0,SW,5.8,-,N/A,,Scattered Clouds,230,2012-10-06 10:15:00
6:35 AM,35.6,33.8,93,30.00,10.0,SW,4.6,-,N/A,,Mostly Cloudy,230,2012-10-06 10:35:00
6:55 AM,33.8,33.8,100,30.01,10.0,WSW,3.5,-,N/A,,Scattered Clouds,240,2012-10-06 10:55:00
7:15 AM,33.8,32.0,93,30.01,10.0,Calm,Calm,-,N/A,,Clear,0,2012-10-06 11:15:00
7:35 AM,33.8,32.0,93,30.02,10.0,WSW,5.8,-,N/A,,Scattered Clouds,240,2012-10-06 11:35:00
7:55 AM,33.8,32.0,93,30.03,10.0,WSW,4.6,-,N/A,,Scattered Clouds,250,2012-10-06 11:55:00
8:15 AM,33.8,32.0,93,30.04,10.0,SW,6.9,-,N/A,,Scattered Clouds,230,2012-10-06 12:15:00
8:34 AM,35.6,33.8,93,30.04,10.0,WSW,4.6,-,N/A,,Scattered Clouds,240,2012-10-06 12:34:00
8:55 AM,37.4,33.8,87,30.05,10.0,SW,5.8,-,N/A,,Mostly Cloudy,230,2012-10-06 12:55:00
9:15 AM,37.4,35.6,93,30.05,10.0,SW,5.8,-,N/A,,Overcast,230,2012-10-06 13:15:00
9:34 AM,37.4,35.6,93,30.05,10.0,WSW,4.6,-,N/A,,Overcast,240,2012-10-06 13:34:00
9:55 AM,39.2,35.6,87,30.06,10.0,WSW,5.8,-,N/A,,Overcast,240,2012-10-06 13:55:00
10:15 AM,41.0,37.4,87,30.05,10.0,WSW,5.8,-,N/A,,Overcast,240,2012-10-06 14:15:00
10:34 AM,42.8,37.4,81,30.05,10.0,WSW,5.8,-,N/A,,Overcast,240,2012-10-06 14:34:00
10:55 AM,42.8,37.4,81,30.06,10.0,West,8.1,-,N/A,,Mostly Cloudy,260,2012-10-06 14:55:00
11:15 AM,44.6,37.4,76,30.06,10.0,West,8.1,-,N/A,,Overcast,280,2012-10-06 15:15:00
11:34 AM,44.6,35.6,71,30.06,10.0,West,9.2,16.1,N/A,,Overcast,280,2012-10-06 15:34:00
11:55 AM,44.6,35.6,71,30.07,10.0,West,9.2,-,N/A,,Overcast,260,2012-10-06 15:55:00
12:15 PM,44.6,35.6,71,30.07,10.0,West,6.9,-,N/A,,Overcast,270,2012-10-06 16:15:00
12:35 PM,44.6,33.8,66,30.08,10.0,West,9.2,16.1,N/A,,Overcast,280,2012-10-06 16:35:00
12:55 PM,44.6,33.8,66,30.08,10.0,WNW,9.2,-,N/A,,Overcast,290,2012-10-06 16:55:00
1:15 PM,44.6,33.8,66,30.08,10.0,West,10.4,18.4,N/A,,Overcast,280,2012-10-06 17:15:00
1:35 PM,44.6,33.8,66,30.08,10.0,West,10.4,-,N/A,,Overcast,270,2012-10-06 17:35:00
1:55 PM,44.6,33.8,66,30.08,10.0,West,12.7,18.4,N/A,,Overcast,280,2012-10-06 17:55:00
2:14 PM,44.6,33.8,66,30.09,10.0,West,10.4,19.6,N/A,,Overcast,280,2012-10-06 18:14:00
2:35 PM,44.6,33.8,66,30.08,10.0,West,13.8,20.7,N/A,,Overcast,270,2012-10-06 18:35:00
2:55 PM,44.6,33.8,66,30.08,10.0,West,10.4,20.7,N/A,,Overcast,280,2012-10-06 18:55:00
3:15 PM,46.4,33.8,62,30.08,10.0,West,12.7,19.6,N/A,,Overcast,280,2012-10-06 19:15:00
3:35 PM,44.6,33.8,66,30.08,10.0,NW,10.4,19.6,N/A,,Overcast,310,2012-10-06 19:35:00
3:54 PM,44.6,33.8,66,30.08,10.0,NW,10.4,-,N/A,,Overcast,310,2012-10-06 19:54:00
4:15 PM,44.6,33.8,66,30.08,10.0,WNW,9.2,-,N/A,,Overcast,290,2012-10-06 20:15:00
4:35 PM,44.6,33.8,66,30.08,10.0,NW,6.9,-,N/A,,Overcast,320,2012-10-06 20:35:00
4:55 PM,44.6,33.8,66,30.09,10.0,NW,12.7,-,N/A,,Overcast,310,2012-10-06 20:55:00
5:15 PM,44.6,33.8,66,30.09,10.0,WNW,9.2,-,N/A,,Overcast,300,2012-10-06 21:15:00
5:35 PM,44.6,33.8,66,30.09,10.0,West,5.8,-,N/A,,Overcast,280,2012-10-06 21:35:00
5:55 PM,44.6,33.8,66,30.10,10.0,West,8.1,-,N/A,,Overcast,280,2012-10-06 21:55:00
6:15 PM,44.6,35.6,71,30.10,10.0,West,6.9,-,N/A,,Overcast,280,2012-10-06 22:15:00
6:34 PM,44.6,35.6,71,30.11,10.0,West,6.9,-,N/A,,Overcast,270,2012-10-06 22:34:00
6:55 PM,42.8,35.6,76,30.11,10.0,WNW,3.5,-,N/A,Rain,Rain,290,2012-10-06 22:55:00
7:14 PM,42.8,35.6,76,30.11,10.0,West,4.6,-,N/A,,Overcast,280,2012-10-06 23:14:00
7:35 PM,42.8,37.4,81,30.12,10.0,West,3.5,-,N/A,,Drizzle,280,2012-10-06 23:35:00
7:54 PM,42.8,37.4,81,30.12,10.0,West,3.5,-,N/A,,Overcast,270,2012-10-06 23:54:00
8:15 PM,42.8,35.6,76,30.12,10.0,West,3.5,-,N/A,,Overcast,260,2012-10-07 00:15:00
8:35 PM,42.8,37.4,81,30.12,10.0,West,3.5,-,N/A,,Overcast,260,2012-10-07 00:35:00
8:54 PM,42.8,35.6,76,30.12,10.0,WSW,4.6,-,N/A,,Overcast,250,2012-10-07 00:54:00
9:15 PM,42.8,37.4,81,30.13,10.0,Calm,Calm,-,N/A,,Overcast,0,2012-10-07 01:15:00
9:35 PM,42.8,37.4,81,30.13,10.0,Calm,Calm,-,N/A,,Overcast,0,2012-10-07 01:35:00
9:54 PM,42.8,37.4,81,30.13,10.0,Calm,Calm,-,N/A,,Overcast,0,2012-10-07 01:54:00
10:15 PM,42.8,37.4,81,30.13,10.0,Calm,Calm,-,N/A,,Overcast,0,2012-10-07 02:15:00
10:34 PM,42.8,37.4,81,30.13,10.0,Calm,Calm,-,N/A,,Overcast,0,2012-10-07 02:34:00
10:55 PM,42.8,37.4,81,30.13,10.0,Calm,Calm,-,N/A,,Overcast,0,2012-10-07 02:55:00
11:14 PM,42.8,37.4,81,30.13,10.0,Calm,Calm,-,N/A,,Overcast,0,2012-10-07 03:14:00
11:35 PM,42.8,37.4,81,30.13,10.0,Calm,Calm,-,N/A,,Overcast,0,2012-10-07 03:35:00
11:55 PM,42.8,39.2,87,30.13,10.0,Calm,Calm,-,N/A,,Overcast,0,2012-10-07 03:55:00